Regional Weather Roundup
Issued by NWS

Home | Current Version | Previous Version | Text Only | Print | Product List | Glossary Off
Versions: 1 2 3 4 5 6 7 8 9 10 11 12 13 14 15 16 17 18 19 20 21 22 23 24 25 26 27 28 29 30 31 32 33 34 35 36 37 38 39 40 41 42 43 44 45 46 47 48 49 50

000
ASUS43 KFSD 040902
RWRSD

WEATHER ROUNDUP FOR SOUTH DAKOTA
NATIONAL WEATHER SERVICE SIOUX FALLS SD
400 AM CDT MON MAY 04 2015

NOTE: "FAIR" INDICATES FEW OR NO CLOUDS BELOW 12,000 FEET WITH NO
SIGNIFICANT WEATHER AND/OR OBSTRUCTIONS TO VISIBILITY.


SDZ001>005-009-010-012>017-041000-
NORTHWEST AND NORTH CENTRAL SOUTH DAKOTA

CITY           SKY/WX    TMP DP  RH WIND       PRES   REMARKS
BUFFALO          N/A     42  33  70 NE8       30.04R
FAITH            N/A     49  21  33 E9        30.11R
MOBRIDGE       MOCLDY    40  26  57 NW5       30.10R
$$

SDZ012>016-024>037-041>051-057-063-072>074-041000-
SOUTHWEST AND SOUTH CENTRAL SOUTH DAKOTA

CITY           SKY/WX    TMP DP  RH WIND       PRES   REMARKS
RAPID CTY ARPT CLOUDY    51  32  48 W3        30.12R
PIERRE         CLOUDY    44  25  47 E3        30.11R
CUSTER         LGT RAIN  40  37  89 E6        30.14S
ELLSWORTH AFB  CLOUDY    51  32  48 S2        30.12R
PHILIP         CLOUDY    46  27  47 CALM      30.11R
PINE RIDGE     CLOUDY    50  31  48 E12       30.09S
WINNER         FAIR      49  26  41 E3        30.11S
$$

SDZ004>011-016>023-039-040-041000-
NORTHEAST SOUTH DAKOTA

CITY           SKY/WX    TMP DP  RH WIND       PRES   REMARKS
ABERDEEN       CLEAR     39  26  59 NW5       30.11S
WATERTOWN      CLEAR     40  25  55 N7        30.09R
BROOKINGS      CLEAR     39  28  65 NW5       30.10R
SISSETON         N/A     38  25  59 N8        30.09R
$$

SDZ017-020-022-023-036>040-048>070-041000-
SOUTHEAST SOUTH DAKOTA

CITY           SKY/WX    TMP DP  RH WIND       PRES   REMARKS
SIOUX FALLS    PTCLDY    50  30  46 N10       30.06S
HURON          MOCLDY    40  26  57 NW5       30.11R
MITCHELL       PTCLDY    42  33  70 NW7       30.10R
YANKTON        PTCLDY    52  30  43 N14       30.04R
$$

ABBREVIATIONS USED IN REMARKS
   TC - TEMPERATURE IN CELSIUS
  WCI - WIND CHILL INDEX
   HX - HEAT INDEX
  VSB - VISIBILITY



USA.gov is the U.S. government's official web portal to all federal, state and local government web resources and services.